KIKU 2 (ETS 2)

导读

<text_never_used_51bce0c58bf0f4848b44565d873be401> KIKU 2也叫ETS 2,是日本于1977年2月23日8点发射的工程试验卫星,归属日本宇宙开发事业团,是日本第二代技术试验卫星,主要用于验证包括姿态控制、轨道控制在内的空间技术,还进行了通信技术测试,是日本早期航天技术探索的重要试验平台,为后续日本卫星技术发展积累了关键的工程数据与实践经验。 </text_never_used_51bce0c58bf0f4848b44565d873be401>

基本信息
目录编号:
9852
目录名称:
KIKU 2 (ETS 2)
国际标识:
1977-014A
轨道中心:
EARTH
卫星名称:
KIKU 2 (ETS 2)
卫星全名:
--
卫星状态:
在轨 (已飞行18038 天)
发射日期:
1977-02-23 UTC
国别 :
日本 (JP)
星等 :
--
轨道信息
数据来源 国际轨道数据 AOE轨道数据
星历时间 2026-07-14T05:00:22+0800
8小时前
查看轨道信息
2026-07-11T01:00:00+0800
3天前
查看轨道信息
半长轴 42242.786km 42242.87km
偏心率 0.000146 0.0001397
轨道倾角 5.208° 5.215°
近地点辐角 185.045° 185.312°
升交点赤经 282.934° 282.974°
平近点角 206.527° 146.176°
近地点 35858.481km 35858.831km
远地点 35870.817km 35870.635km
周期 1440.086分钟 1440.091分钟
每日圈数 0.99994 0.999937
详细信息
使用方式:
暂无
2D轨道图
3D轨道图
轨道高度分析图
轨道倾角分析图
轨道综合分析图
查看轨道综合分析图